STARLINK-1526, 46029

Orbit data source: Space-Track

STARLINK-1526, 46029 is a payload satellite owned by SpaceX/Seattle (US) in LEO that was launched on Fri, 07 Aug 2020 UTC via an FALCON 9 launch vehicle from the Air Force Eastern Test Range (AFETR). Payloads include a variety of satellites, spacecraft, and rockets equipped with specific instruments for various scientific and technological missions. These include communications satellites like Starlink; space stations such as the ISS; scientific satellites like the Hubble; Earth observation satellites from companies like Planet Labs, Umbra, and HawkEye 360; GPS; miniature CubeSats for education and research; and military/defense satellites.

Loading next visibility...
STARLINK-1526 details
Identifier
46029, 2020-055C
Orbit
LEO
Last TLE update6 hours ago
Origin
Flag of USSpaceX/Seattle (US)
ManufacturerSpaceX/Seattle
MissionOperational Commercial Communications
Bus & MotorSTARLINK, Unknown motor
Mass260 kg wet, ~248 kg dry
Launch date (UTC)
2020-08-07 (4 years ago)
Launch vehicle
FALCON 9
Launch site
Air Force Eastern Test Range (AFETR)
Object type
Payload
Rocket body
Debris
Shape & HBRBox + 1 Pan, 8.86 m
Radar Cross Section13.562 m², Large (>1 m²)

Expand to show TLE details & history

TLE from 6 hours ago
0 STARLINK-1526
1 46029U 20055C   24361.54813468  .00002096  00000-0  15947-3 0  9994
2 46029  53.0561 293.5126 0001435  97.8539 262.2612 15.06419039242855
Epoch: 2024-12-26T13:09Z
Definitive object data (Epoch: 2024-12-26T13:09:18.836Z)
Latitude-0.00009°
Longitude0.6581°
Altitude548.167 km
Speed7.589 km/s
True Right ascension19h 34m 03s
True Declination0° 00' 00"
Sunlit
Object was in daylight at TLE epoch
Visualization TLE readout
Latitude-8.97542°
Longitude-7.30826°
Altitude549.964 km
Speed7.587 km/s
Apparent Right ascension19h 29m 42s
Apparent Declination-69° 05' 54"
Sunlit
Object is in daylight
Visualization observer readout
Local Sidereal Time18:51:09
Azimuth176.373° S
Elevation-19.249°
Doppler factor1
Orbital elements
Apogee altitude548.417 km
Perigee altitude546.43 km
Semi-major axis6,925.561 km
Eccentricity0.0001435
Inclination53.0561°
RAAN293.5126°
Arg. of periapsis97.8539°
True anomaly262.24491°
Mean anomaly262.2612°
Eccentric anomaly262.25305°
Mean motion3.76583 °/min
BSTAR0.00015947
Orbital period95.6 mins
Loading maneuver chart data...
Loading historical data...
Loading historical data...
Loading historical data...
Loading historical data...
Loading historical data...
Loading historical data...
Loading historical data...

STARLINK-1526 Visibility forecast

Observer location: undefined°, undefined

Span
Click to sort rows by Start time (UTC) header in descending order
Start Az.
Max El. time (UTC)
Max El. Az.
Max El.
End time (UTC)
End Az.
4 mins2024-12-26 21:16:29.742Z157.268° SSE2024-12-26 21:18:29.742Z122.723° SE16.558°2024-12-26 21:20:29.742Z90.705° ESE
6 mins2024-12-26 22:54:29.742Z243.596° WSW2024-12-26 22:57:29.742Z331.96° NNW42.02°2024-12-26 23:00:29.742Z42.667° NE
5 mins2024-12-27 03:57:29.742Z349.807° N2024-12-27 03:59:29.742Z34.369° NE22.646°2024-12-27 04:02:29.742Z81.584° E
6 mins2024-12-27 05:36:29.742Z299.479° NW2024-12-27 05:38:29.742Z259.491° W40.807°2024-12-27 05:42:29.742Z142.74° SSE
|